TimeCST,TemperatureF,Dew PointF,Humidity,Sea Level PressureIn,VisibilityMPH,Wind Direction,Wind SpeedMPH,Gust SpeedMPH,PrecipitationIn,Events,Conditions,WindDirDegrees,DateUTC
12:53 AM,33.1,32.0,96,29.86,6.0,Calm,Calm,-,N/A,,Clear,0,2012-12-18 06:53:00
1:53 AM,34.0,33.1,96,29.86,6.0,South,4.6,-,N/A,,Clear,190,2012-12-18 07:53:00
2:53 AM,35.1,34.0,96,29.88,5.0,SSW,4.6,-,N/A,,Clear,210,2012-12-18 08:53:00
3:49 AM,33.8,32.0,93,29.89,2.5,SSW,3.5,-,0.01,,Clear,200,2012-12-18 09:49:00
3:53 AM,32.0,30.9,96,29.89,2.5,Calm,Calm,-,0.01,,Clear,0,2012-12-18 09:53:00
4:11 AM,30.2,30.2,100,29.89,5.0,Calm,Calm,-,N/A,,Clear,0,2012-12-18 10:11:00
4:53 AM,30.9,30.0,96,29.90,3.0,SSW,4.6,-,N/A,,Clear,200,2012-12-18 10:53:00
5:03 AM,32.0,30.2,93,29.90,2.5,SSW,4.6,-,N/A,,Clear,200,2012-12-18 11:03:00
5:11 AM,33.8,32.0,93,29.90,3.0,SSW,4.6,-,N/A,,Clear,200,2012-12-18 11:11:00
5:53 AM,33.1,32.0,96,29.93,3.0,South,4.6,-,N/A,,Clear,190,2012-12-18 11:53:00
6:01 AM,30.2,30.2,100,29.92,2.0,South,4.6,-,N/A,,Clear,190,2012-12-18 12:01:00
6:37 AM,30.2,28.4,93,29.91,4.0,South,3.5,-,N/A,,Clear,190,2012-12-18 12:37:00
6:53 AM,28.9,28.0,96,29.91,0.8,Calm,Calm,-,N/A,,Mist,0,2012-12-18 12:53:00
7:04 AM,28.4,28.4,100,29.90,0.5,Calm,Calm,-,N/A,Fog,Light Freezing Fog,0,2012-12-18 13:04:00
7:13 AM,28.4,28.4,100,29.91,2.0,Calm,Calm,-,N/A,,Mostly Cloudy,0,2012-12-18 13:13:00
7:16 AM,28.4,28.4,100,29.91,0.5,Calm,Calm,-,N/A,Fog,Light Freezing Fog,0,2012-12-18 13:16:00
7:53 AM,30.9,30.9,100,29.92,0.5,Calm,Calm,-,N/A,Fog,Light Freezing Fog,0,2012-12-18 13:53:00
8:00 AM,32.0,30.2,93,29.92,1.0,Calm,Calm,-,N/A,,Mist,0,2012-12-18 14:00:00
8:17 AM,33.8,33.8,100,29.92,1.0,Calm,Calm,-,0.01,,Mist,0,2012-12-18 14:17:00
8:33 AM,35.6,35.6,100,29.93,3.0,SSW,4.6,-,0.01,,Partly Cloudy,200,2012-12-18 14:33:00
8:53 AM,39.9,39.0,97,29.95,3.0,South,5.8,-,0.01,,Clear,190,2012-12-18 14:53:00
9:53 AM,46.9,41.0,80,29.95,10.0,South,8.1,-,N/A,,Clear,190,2012-12-18 15:53:00
10:53 AM,51.1,39.9,66,29.94,10.0,South,9.2,-,N/A,,Clear,190,2012-12-18 16:53:00
11:53 AM,55.9,39.0,53,29.91,10.0,South,9.2,-,N/A,,Clear,190,2012-12-18 17:53:00
12:53 PM,57.9,39.9,51,29.88,10.0,SSW,15.0,-,N/A,,Clear,200,2012-12-18 18:53:00
1:53 PM,61.0,37.9,42,29.85,10.0,South,9.2,-,N/A,,Clear,190,2012-12-18 19:53:00
2:53 PM,61.0,36.0,39,29.85,10.0,South,15.0,19.6,N/A,,Clear,190,2012-12-18 20:53:00
3:53 PM,60.1,37.0,42,29.85,10.0,SSW,11.5,-,N/A,,Clear,200,2012-12-18 21:53:00
4:53 PM,55.9,37.0,49,29.85,10.0,South,4.6,-,N/A,,Clear,170,2012-12-18 22:53:00
5:53 PM,54.0,39.0,57,29.86,10.0,South,3.5,-,N/A,,Clear,180,2012-12-18 23:53:00
6:53 PM,53.1,39.9,61,29.88,10.0,South,4.6,-,N/A,,Clear,170,2012-12-19 00:53:00
7:53 PM,48.9,39.9,71,29.90,10.0,South,5.8,-,N/A,,Clear,180,2012-12-19 01:53:00
8:53 PM,46.0,39.9,79,29.91,10.0,South,3.5,-,N/A,,Clear,190,2012-12-19 02:53:00
9:53 PM,42.1,37.9,85,29.91,10.0,South,6.9,-,N/A,,Clear,190,2012-12-19 03:53:00
10:53 PM,45.0,39.9,82,29.91,10.0,South,4.6,-,N/A,,Clear,190,2012-12-19 04:53:00
11:53 PM,39.9,37.0,89,29.92,10.0,Calm,Calm,-,N/A,,Clear,0,2012-12-19 05:53:00